Kremmling, CO

1:12 PM MST on November 15, 2019 (GMT -0700)
Kremmling

Weather History for K20V - September, 2019

Change the Weather History Date:

Sunday, September 8, 2019

  Actual Average Record
Temperature  
Mean Temperature 55 °F -  
Max Temperature 75 °F - 84 °F (2017)
Min Temperature 35 °F - 28 °F (2008)
Degree Days  
Heating Degree Days 10    
Month to date heating degree days 19  
Cooling Degree Days 0    
Month to date cooling degree days 4  
Growing Degree Days 5 (Base 50)    
Moisture  
Dew Point 43 °F    
Average Humidity 74    
Maximum Humidity 100    
Minimum Humidity 29    
Precipitation  
Precipitation 0.00 in - 0.43 in (2006)
Snow  
Snow 0.00 in - - ()
Snow Depth 0.00 in    
Sea Level Pressure  
Sea Level Pressure 30.14 in    
Wind  
Wind Speed 2 mph ()    
Max Wind Speed 31 mph    
Max Gust Speed 52 mph    
Visibility 9.9 miles    
Events Rain , Thunderstorm    
T = Trace of Precipitation, MM = Missing Value Source: Averaged Metar Reports

Daily Weather History Graph

Daily Weather History Graph

Search for Another Location

Airport or City:

Astronomy

Sep. 08, 2019 Rise Set
Actual Time 6:39 AM MDT 7:25 PM MDT
Civil Twilight 6:12 AM MDT 7:53 PM MDT
Nautical Twilight 5:39 AM MDT 8:25 PM MDT
Astronomical Twilight 5:05 AM MDT 8:59 PM MDT
Moon 4:37 PM MDT (9/8) 1:21 AM MDT (9/8)
Length of Visible Light 13h 41m
Length of Day
12h 46m
Waxing Gibbous, 75% of the Moon is Illuminated
Sep 8
Waxing Gibbous
Sep 13
Full
Sep 21
Last Quarter
Sep 28
New
Oct 5
First Quarter

Hourly Weather History & Observations

Time (MDT) Temp. Dew Point Humidity Pressure Visibility Wind Dir Wind Speed Gust Speed Precip Events Conditions
12:06 AM 48.2 °F 42.8 °F 82% 30.26 in 10.0 mi Calm Calm - N/A   Clear
12:30 AM 48.2 °F 42.8 °F 82% 30.26 in 10.0 mi Calm Calm - N/A   Clear
12:47 AM 44.6 °F 41.0 °F 87% 30.26 in 10.0 mi Calm Calm - N/A   Clear
1:06 AM 44.6 °F 41.0 °F 87% 30.26 in 10.0 mi Calm Calm - N/A   Clear
1:30 AM 41.0 °F 37.4 °F 87% 30.25 in 10.0 mi Calm Calm - N/A   Clear
1:48 AM 42.8 °F 37.4 °F 81% 30.25 in 10.0 mi Calm Calm - N/A   Clear
2:06 AM 42.8 °F 37.4 °F 81% 30.25 in 10.0 mi Calm Calm - N/A   Clear
2:30 AM 42.8 °F 37.4 °F 81% 30.24 in 10.0 mi Calm Calm - N/A   Clear
2:48 AM 41.0 °F 35.6 °F 81% 30.24 in 10.0 mi Calm Calm - N/A   Clear
3:06 AM 41.0 °F 37.4 °F 87% 30.24 in 10.0 mi Calm Calm - N/A   Clear
3:30 AM 41.0 °F 37.4 °F 87% 30.23 in 10.0 mi Calm Calm - N/A   Clear
3:48 AM 41.0 °F 37.4 °F 87% 30.22 in 10.0 mi Calm Calm - N/A   Clear
4:06 AM 39.2 °F 35.6 °F 87% 30.22 in 10.0 mi Calm Calm - N/A   Clear
4:30 AM 39.2 °F 37.4 °F 93% 30.22 in 10.0 mi Calm Calm - N/A   Clear
4:48 AM 37.4 °F 35.6 °F 93% 30.22 in 10.0 mi Calm Calm - N/A   Clear
5:06 AM 37.4 °F 35.6 °F 93% 30.22 in 10.0 mi Calm Calm - N/A   Clear
5:30 AM 37.4 °F 33.8 °F 87% 30.22 in 10.0 mi Calm Calm - N/A   Clear
5:48 AM 37.4 °F 35.6 °F 93% 30.22 in 10.0 mi Calm Calm - N/A   Clear
6:08 AM 35.6 °F 33.8 °F 93% 30.22 in 10.0 mi Calm Calm - N/A   Clear
6:26 AM 37.4 °F 35.6 °F 93% 30.22 in 10.0 mi Calm Calm - N/A   Clear
6:50 AM 37.4 °F 37.4 °F 100% 30.22 in 10.0 mi Calm Calm - N/A   Clear
7:06 AM 35.6 °F 35.6 °F 100% 30.22 in 10.0 mi Calm Calm - N/A   Clear
7:30 AM 37.4 °F 37.4 °F 100% 30.22 in 10.0 mi Calm Calm - N/A   Clear
7:48 AM 41.0 °F 37.4 °F 87% 30.22 in 10.0 mi Calm Calm - N/A   Clear
8:06 AM 42.8 °F 37.4 °F 81% 30.22 in 10.0 mi Calm Calm - N/A   Clear
8:30 AM 44.6 °F 41.0 °F 87% 30.22 in 10.0 mi Calm Calm - N/A   Clear
8:48 AM 48.2 °F 41.0 °F 76% 30.21 in 10.0 mi Calm Calm - N/A   Clear
9:06 AM 50.0 °F 39.2 °F 66% 30.21 in 10.0 mi Calm Calm - N/A   Clear
9:30 AM 53.6 °F 41.0 °F 62% 30.20 in 10.0 mi Calm Calm - N/A   Clear
9:48 AM 55.4 °F 41.0 °F 58% 30.19 in 10.0 mi Calm Calm - N/A   Clear
10:06 AM 59.0 °F 41.0 °F 51% 30.18 in 10.0 mi Calm Calm - N/A   Clear
10:30 AM 59.0 °F 41.0 °F 51% 30.16 in 10.0 mi Calm Calm - N/A   Clear
10:48 AM 60.8 °F 41.0 °F 48% 30.15 in 10.0 mi Calm Calm - N/A   Clear
11:06 AM 64.4 °F 41.0 °F 42% 30.14 in 10.0 mi SE 3.5 mph - N/A   Clear
11:29 AM 64.4 °F 42.8 °F 45% 30.12 in 10.0 mi Calm Calm - N/A   Scattered Clouds
11:47 AM 68.0 °F 42.8 °F 40% 30.10 in 10.0 mi ESE 3.5 mph - N/A   Scattered Clouds
12:06 PM 73.4 °F 42.8 °F 33% 30.07 in 10.0 mi ESE 5.8 mph - N/A   Scattered Clouds
12:30 PM 75.2 °F 41.0 °F 29% 30.06 in 10.0 mi Calm Calm - N/A   Clear
12:48 PM 73.4 °F 41.0 °F 31% 30.05 in 10.0 mi WSW 5.8 mph - N/A   Scattered Clouds
1:06 PM 73.4 °F 41.0 °F 31% 30.04 in 10.0 mi SSW 6.9 mph 15.0 mph N/A Rain Light Rain
1:30 PM 71.6 °F 41.0 °F 33% 30.07 in 10.0 mi SW 23.0 mph 29.9 mph N/A   Mostly Cloudy
1:48 PM 66.2 °F 50.0 °F 56% 30.06 in 10.0 mi West 11.5 mph 17.3 mph N/A Rain Light Rain
2:06 PM 73.4 °F 46.4 °F 38% 30.04 in 10.0 mi West 6.9 mph - N/A   Scattered Clouds
2:30 PM 73.4 °F 42.8 °F 33% 30.04 in 10.0 mi SW 6.9 mph - N/A Thunderstorm Clear
2:48 PM 73.4 °F 42.8 °F 33% 30.03 in 10.0 mi SSE 8.1 mph - N/A Thunderstorm Mostly Cloudy
3:06 PM 73.4 °F 42.8 °F 33% 30.02 in 10.0 mi ESE 4.6 mph - N/A Thunderstorm Mostly Cloudy
3:30 PM 60.8 °F 46.4 °F 59% 30.07 in 10.0 mi WSW 31.1 mph 51.8 mph N/A Rain , Thunderstorm Light Thunderstorms and Rain
3:48 PM 55.4 °F 51.8 °F 88% 30.11 in 7.0 mi West 9.2 mph 26.5 mph N/A Rain , Thunderstorm Light Thunderstorms and Rain
4:06 PM 55.4 °F 50.0 °F 82% 30.11 in 10.0 mi NE 9.2 mph - N/A Thunderstorm Overcast
4:30 PM 55.4 °F 50.0 °F 82% 30.11 in 10.0 mi Calm Calm - N/A Rain , Thunderstorm Light Thunderstorms and Rain
4:48 PM 55.4 °F 51.8 °F 88% 30.09 in 10.0 mi NE 3.5 mph - N/A   Mostly Cloudy
5:06 PM 57.2 °F 51.8 °F 82% 30.09 in 10.0 mi NE 5.8 mph - N/A   Mostly Cloudy
5:30 PM 59.0 °F 50.0 °F 72% 30.09 in 10.0 mi East 5.8 mph - N/A   Overcast
5:48 PM 59.0 °F 50.0 °F 72% 30.08 in 10.0 mi ESE 3.5 mph - N/A   Overcast
6:06 PM 59.0 °F 50.0 °F 72% 30.06 in 10.0 mi Calm Calm - N/A   Scattered Clouds
6:30 PM 55.4 °F 50.0 °F 82% 30.06 in 10.0 mi Calm Calm - N/A   Scattered Clouds
6:48 PM 55.4 °F 50.0 °F 82% 30.06 in 10.0 mi ESE 6.9 mph - N/A   Clear
7:06 PM 55.4 °F 50.0 °F 82% 30.06 in 10.0 mi ESE 3.5 mph - N/A   Clear
7:30 PM 53.6 °F 50.0 °F 88% 30.05 in 10.0 mi Calm Calm - N/A   Mostly Cloudy
7:48 PM 55.4 °F 50.0 °F 82% 30.07 in 10.0 mi Calm Calm - N/A Thunderstorm Thunderstorm
8:06 PM 53.6 °F 51.8 °F 94% 30.06 in 10.0 mi Calm Calm - N/A Rain Light Rain
8:30 PM 53.6 °F 50.0 °F 88% 30.08 in 10.0 mi Calm Calm - N/A Thunderstorm Overcast
8:48 PM 53.6 °F 50.0 °F 88% 30.08 in 10.0 mi Calm Calm - N/A   Mostly Cloudy
9:06 PM 53.6 °F 50.0 °F 88% 30.09 in 10.0 mi ESE 5.8 mph - N/A   Mostly Cloudy
9:30 PM 53.6 °F 50.0 °F 88% 30.13 in 5.0 mi WSW 9.2 mph - N/A Rain , Thunderstorm Heavy Thunderstorms and Rain
9:48 PM 53.6 °F 51.8 °F 94% 30.11 in 10.0 mi Calm Calm - N/A Rain , Thunderstorm Light Thunderstorms and Rain
10:06 PM 53.6 °F 50.0 °F 88% 30.07 in 10.0 mi ESE 5.8 mph - N/A   Drizzle
10:30 PM 53.6 °F 46.4 °F 77% 30.08 in 10.0 mi Calm Calm - N/A   Overcast
10:48 PM 53.6 °F 50.0 °F 88% 30.10 in 10.0 mi East 3.5 mph - N/A   Overcast
11:06 PM 53.6 °F 50.0 °F 88% 30.10 in 10.0 mi NNE 4.6 mph - N/A   Mostly Cloudy
11:29 PM 50.0 °F 46.4 °F 87% 30.09 in 10.0 mi East 6.9 mph - N/A   Scattered Clouds
11:47 PM 50.0 °F 46.4 °F 87% 30.10 in 10.0 mi Calm Calm - N/A   Clear